Flag for Germany Weather past 2 weeks in Wunstorf, Lower Saxony, Germany

Now
45 °F

Scattered clouds.


Feels Like: 37 °F
Forecast: 35 / 43 °F
Wind: 17 mph from West

Location: Wunstorf Airport

Current Time: Mar 3, 2015 at 1:21:42 PM

Latest Report: Mar 3, 2015 at 12:20 PM


Visibility: N/A

Pressure: 29.98 "Hg

Humidity: 61%

Dew point: 32 °F

Location of WunstorfLocation

Historic Weather in Wunstorf — Graph

°F

Wunstorf temperature yesterday

Maximum temperature yesterday: 46 °F (at 2:20 PM)
Minimum temperature yesterday: 36 °F (at 7:20 PM)
Average temperature yesterday: 41 °F

Past Weeks' High & Low Weather Summary

 TemperatureHumidityPressure
High50 °F (Mar 1, 1:20 PM)100% (Feb 17, 2:20 AM)30.74 "Hg (Feb 17, 2:20 AM)
Low27 °F (Feb 17, 6:20 AM)43% (Feb 28, 4:20 PM)29.30 "Hg (Feb 21, 7:20 AM)
Average39 °F80%29.91 "Hg
* Reported Feb 16 11:20 AM — Mar 3 11:20 AM, Wunstorf, Weather by CustomWeather, © 2015

Note: Actual official high and low records may vary slightly from our data, if they occured in-between our weather recording intervals... More about our weather records

Advertising

Wunstorf weather history for previous 24 hours

 ConditionsComfort  
Time TempWeatherWind HumidityBarometerVisibility
11:20 AM
Tue, Mar 3
41 °FScattered clouds.18 mph70%29.98 "HgN/A
10:20 AM41 °FScattered clouds.18 mph76%30.01 "HgN/A
9:20 AM37 °FScattered clouds.16 mph81%29.98 "HgN/A
8:20 AM37 °FScattered clouds.18 mph81%29.98 "HgN/A
7:20 AM36 °FScattered clouds.15 mph81%29.95 "HgN/A
6:20 AM36 °FPassing clouds.16 mph81%29.95 "HgN/A
5:20 AM36 °FPassing clouds.16 mph75%29.95 "HgN/A
4:20 AM36 °FChilly.14 mph81%29.92 "Hg5 mi
3:20 AM37 °FChilly.18 mph75%29.89 "Hg5 mi
2:20 AM37 °FChilly.22 mph75%29.89 "Hg5 mi
1:20 AM37 °FChilly.17 mph81%29.86 "Hg4 mi
12:20 AM36 °FChilly.17 mph87%29.83 "Hg2 mi
11:20 PM
Mon, Mar 2
37 °FChilly.21 mph81%29.80 "Hg5 mi
10:20 PM36 °FChilly.23 mph87%29.77 "Hg5 mi
9:20 PM36 °FChilly.17 mph87%29.74 "Hg4 mi
8:20 PM37 °FChilly.16 mph87%29.71 "Hg2 mi
7:20 PM36 °FSprinkles. Partly cloudy.22 mph93%29.68 "HgN/A
6:49 PM39 °FSprinkles. Partly cloudy.22 mph81%29.68 "HgN/A
6:20 PM41 °FSprinkles. Partly cloudy.17 mph70%29.65 "HgN/A
5:20 PM41 °FBroken clouds.14 mph76%29.62 "HgN/A
4:20 PM41 °FScattered clouds.12 mph76%29.62 "HgN/A
3:53 PM43 °FSprinkles. Broken clouds.18 mph71%29.62 "Hg4 mi
3:20 PM43 °FScattered showers. Partly sunny.15 mph61%29.59 "HgN/A
2:20 PM46 °FPartly sunny.25 mph50%29.59 "HgN/A
1:20 PM45 °FPartly sunny.17 mph57%29.56 "HgN/A
Weather by CustomWeather, © 2015

See weather overviewHow to use our weather pages